Date String (YYYY-MM-DD hh:mm:ss) UTC,Instrument flags,absolute air pressure of the measurement (hPa),sample flow rate (lpm),inlet stack bypass flow (lpm),air temperature of the measurement (°C),ambient temperature measured by the external sensor (°C),aerosol sample conditioner tube jacket temperature (°C),OPC LED temperature (°C),internal box temperature (°C),relative humidity of the measurement (%),span deviation,mass concentration of particles derived from Lorenz-Mie calculation of OPC scattering (μg/m³),mass concentration of particles derived from Lorenz-Mie calculation of OPC scattering (μg/m³),mass concentration of particles derived from Lorenz-Mie calculation of OPC scattering (μg/m³)
DateTimeUTC,F1_M11,P_M11,Q1_M11,Q2_M11,T1_M11,T2_M11,T3_M11,T4_M11,T5_M11,U1_M11,ZSPAN_M11,X2_M11,X0_M11,X1_M11
2023-07-23 20:00:00,SystemResetWarning,0833.3,5.00,000.00,028.4,025.5,000.0,036.6,029.9,20.6,0000.0,0005.30,0009.26,0004.81
2023-07-23 20:01:00,SystemResetWarning,0833.4,4.99,000.00,028.4,025.9,000.0,036.7,029.9,21.1,0000.0,0005.23,0009.09,0004.81
2023-07-23 20:02:00,SystemResetWarning,0833.4,5.00,000.00,028.4,026.4,000.0,036.7,030.1,21.7,0000.0,0005.28,0009.53,0004.82
2023-07-23 20:03:00,SystemResetWarning,0833.4,5.00,000.00,028.5,026.8,000.0,036.7,030.2,20.5,0000.0,0005.29,0009.69,0004.83
2023-07-23 20:04:00,SystemResetWarning,0833.4,5.01,000.00,028.6,027.2,000.0,036.8,030.3,22.6,0000.0,0005.30,0009.49,0004.85
2023-07-23 20:05:00,SystemResetWarning,0833.4,4.99,000.00,028.6,026.6,000.0,036.7,030.2,22.5,0000.0,0005.29,0009.49,0004.87
2023-07-23 20:06:00,SystemResetWarning,0833.4,5.01,000.00,028.5,025.1,000.0,036.6,030.0,22.2,0000.0,0005.31,0009.84,0004.87
2023-07-23 20:07:00,SystemResetWarning,0833.4,5.01,000.00,028.5,024.9,000.0,036.6,029.9,23.1,0000.0,0005.33,0009.91,0004.87
2023-07-23 20:08:00,SystemResetWarning,0833.4,4.98,000.00,028.4,025.3,000.0,036.6,029.9,25.3,0000.0,0005.28,0009.74,0004.86
2023-07-23 20:09:00,SystemResetWarning,0833.5,5.00,000.00,028.4,025.7,000.0,036.7,029.9,21.7,0000.0,0005.27,0009.61,0004.84
2023-07-23 20:10:00,SystemResetWarning,0833.4,5.01,000.00,028.4,026.1,000.0,036.7,030.0,19.5,0000.0,0005.24,0009.70,0004.81
2023-07-23 20:11:00,SystemResetWarning,0833.4,5.01,000.00,028.5,026.6,000.0,036.7,030.1,22.2,0000.0,0005.20,0009.55,0004.78
2023-07-23 20:12:00,SystemResetWarning,0833.4,4.99,000.00,028.5,026.9,000.0,036.8,030.2,21.4,0000.0,0005.16,0009.97,0004.74
2023-07-23 20:13:00,SystemResetWarning,0833.4,5.00,000.00,028.6,027.1,000.0,036.8,030.3,22.5,0000.0,0005.09,0009.67,0004.71
2023-07-23 20:14:00,SystemResetWarning,0833.4,5.00,000.00,028.6,025.8,000.0,036.7,030.1,22.5,0000.0,0005.02,0009.30,0004.68
2023-07-23 20:15:00,SystemResetWarning,0833.4,5.01,000.00,028.5,024.8,000.0,036.6,030.0,22.8,0000.0,0004.99,0009.18,0004.66
2023-07-23 20:16:00,SystemResetWarning,0833.4,5.01,000.00,028.5,025.1,000.0,036.6,029.9,19.3,0000.0,0005.02,0008.79,0004.65
2023-07-23 20:17:00,SystemResetWarning,0833.4,4.98,000.00,028.4,025.5,000.0,036.6,029.9,20.5,0000.0,0005.01,0008.45,0004.63
2023-07-23 20:18:00,SystemResetWarning,0833.4,5.00,000.00,028.4,025.9,000.0,036.7,029.9,20.8,0000.0,0004.95,0008.32,0004.61
2023-07-23 20:19:00,SystemResetWarning,0833.4,5.00,000.00,028.4,026.3,000.0,036.7,030.0,21.7,0000.0,0004.96,0008.42,0004.60
2023-07-23 20:20:00,SystemResetWarning,0833.4,5.01,000.00,028.5,026.8,000.0,036.7,030.2,19.3,0000.0,0004.95,0008.27,0004.58
2023-07-23 20:21:00,SystemResetWarning,0833.4,5.01,000.00,028.5,027.1,000.0,036.8,030.2,18.9,0000.0,0004.96,0008.25,0004.58
2023-07-23 20:22:00,SystemResetWarning,0833.4,4.99,000.00,028.6,027.3,000.0,036.8,030.3,21.4,0000.0,0004.98,0008.38,0004.58
2023-07-23 20:23:00,SystemResetWarning,0833.4,4.99,000.00,028.6,026.1,000.0,036.7,030.2,22.2,0000.0,0004.98,0007.98,0004.59
2023-07-23 20:24:00,SystemResetWarning,0833.3,5.01,000.00,028.5,024.9,000.0,036.6,030.0,19.1,0000.0,0004.98,0007.86,0004.60
2023-07-23 20:25:00,SystemResetWarning,0833.3,5.01,000.00,028.5,025.1,000.0,036.6,030.0,19.4,0000.0,0005.02,0008.35,0004.60
2023-07-23 20:26:00,SystemResetWarning,0833.3,5.00,000.00,028.5,025.5,000.0,036.7,029.9,19.1,0000.0,0005.03,0008.75,0004.59
2023-07-23 20:27:00,SystemResetWarning,0833.3,4.99,000.00,028.5,025.9,000.0,036.7,030.0,20.6,0000.0,0004.97,0008.71,0004.57
2023-07-23 20:28:00,SystemResetWarning,0833.4,5.00,000.00,028.5,026.4,000.0,036.7,030.1,23.0,0000.0,0004.93,0008.67,0004.54
2023-07-23 20:29:00,SystemResetWarning,0833.3,5.00,000.00,028.5,026.8,000.0,036.8,030.2,20.3,0000.0,0004.93,0008.81,0004.53
2023-07-23 20:30:00,SystemResetWarning,0833.2,5.01,000.00,028.6,027.1,000.0,036.8,030.3,21.4,0000.0,0004.92,0009.26,0004.53
2023-07-23 20:31:00,SystemResetWarning,0833.3,4.98,000.00,028.6,026.8,000.0,036.8,030.3,21.3,0000.0,0004.90,0009.74,0004.53
2023-07-23 20:32:00,SystemResetWarning,0833.2,5.00,000.00,028.6,025.3,000.0,036.7,030.1,21.1,0000.0,0004.89,0010.25,0004.53
2023-07-23 20:33:00,SystemResetWarning,0833.2,5.01,000.00,028.5,024.9,000.0,036.6,030.0,19.8,0000.0,0004.89,0010.73,0004.52
2023-07-23 20:34:00,SystemResetWarning,0833.2,5.01,000.00,028.5,025.3,000.0,036.7,030.0,19.1,0000.0,0004.91,0010.90,0004.51
2023-07-23 20:35:00,SystemResetWarning,0833.2,5.00,000.00,028.5,025.7,000.0,036.7,030.0,20.1,0000.0,0004.90,0010.97,0004.51
2023-07-23 20:36:00,SystemResetWarning,0833.2,5.00,000.00,028.5,026.1,000.0,036.7,030.1,18.6,0000.0,0004.86,0010.78,0004.50
2023-07-23 20:37:00,SystemResetWarning,0833.2,5.00,000.00,028.5,026.6,000.0,036.8,030.2,21.7,0000.0,0004.87,0010.43,0004.49
2023-07-23 20:38:00,SystemResetWarning,0833.2,5.01,000.00,028.6,026.9,000.0,036.8,030.3,22.0,0000.0,0004.87,0011.59,0004.48
2023-07-23 20:39:00,SystemResetWarning,0833.2,5.00,000.00,028.6,027.2,000.0,036.8,030.4,20.5,0000.0,0004.88,0012.14,0004.48
2023-07-23 20:40:00,SystemResetWarning,0833.2,4.98,000.00,028.6,026.2,000.0,036.8,030.2,20.1,0000.0,0004.87,0012.08,0004.47
2023-07-23 20:41:00,SystemResetWarning,0833.2,5.00,000.00,028.5,025.0,000.0,036.7,030.0,19.5,0000.0,0004.84,0011.55,0004.45
2023-07-23 20:42:00,SystemResetWarning,0833.2,5.02,000.00,028.5,025.2,000.0,036.6,030.0,19.8,0000.0,0004.83,0011.01,0004.43
2023-07-23 20:43:00,SystemResetWarning,0833.2,5.00,000.00,028.5,025.5,000.0,036.7,029.9,20.6,0000.0,0004.81,0010.36,0004.42
2023-07-23 20:44:00,SystemResetWarning,0833.2,5.01,000.00,028.5,026.0,000.0,036.7,030.0,19.0,0000.0,0004.79,0009.85,0004.41
2023-07-23 20:45:00,SystemResetWarning,0833.2,5.00,000.00,028.5,026.4,000.0,036.8,030.1,19.8,0000.0,0004.76,0009.97,0004.40
2023-07-23 20:46:00,SystemResetWarning,0833.2,5.00,000.00,028.5,026.8,000.0,036.8,030.3,19.3,0000.0,0004.77,0010.86,0004.39
2023-07-23 20:47:00,SystemResetWarning,0833.2,5.00,000.00,028.6,027.1,000.0,036.8,030.3,20.5,0000.0,0004.75,0010.92,0004.38
2023-07-23 20:48:00,SystemResetWarning,0833.2,4.98,000.00,028.6,026.1,000.0,036.7,030.2,22.8,0000.0,0004.76,0011.29,0004.37
2023-07-23 20:49:00,SystemResetWarning,0833.2,5.01,000.00,028.5,024.9,000.0,036.7,030.0,21.4,0000.0,0004.73,0011.67,0004.37
2023-07-23 20:50:00,SystemResetWarning,0833.2,5.01,000.00,028.5,025.1,000.0,036.6,030.0,18.8,0000.0,0004.73,0010.78,0004.37
2023-07-23 20:51:00,SystemResetWarning,0833.2,4.99,000.00,028.5,025.4,000.0,036.7,029.9,20.8,0000.0,0004.75,0010.45,0004.37
2023-07-23 20:52:00,SystemResetWarning,0833.2,5.00,000.00,028.5,025.9,000.0,036.7,030.0,21.9,0000.0,0004.73,0010.42,0004.36
2023-07-23 20:53:00,SystemResetWarning,0833.2,5.01,000.00,028.5,026.4,000.0,036.7,030.1,22.8,0000.0,0004.73,0010.56,0004.35
2023-07-23 20:54:00,SystemResetWarning,0833.2,5.01,000.00,028.5,026.8,000.0,036.8,030.2,21.4,0000.0,0004.71,0010.61,0004.34
2023-07-23 20:55:00,SystemResetWarning,0833.2,4.99,000.00,028.6,027.2,000.0,036.8,030.3,19.4,0000.0,0004.74,0010.72,0004.35
2023-07-23 20:56:00,SystemResetWarning,0833.2,5.00,000.00,028.6,027.4,000.0,036.8,030.4,19.4,0000.0,0004.76,0010.99,0004.35
2023-07-23 20:57:00,SystemResetWarning,0833.2,5.00,000.00,028.6,026.5,000.0,036.8,030.3,18.3,0000.0,0004.82,0010.43,0004.36
2023-07-23 20:58:00,SystemResetWarning,0833.2,5.00,000.00,028.6,025.1,000.0,036.7,030.1,20.0,0000.0,0004.83,0010.17,0004.36
2023-07-23 20:59:00,SystemResetWarning,0833.1,5.02,000.00,028.5,025.2,000.0,036.7,030.0,21.2,0000.0,0004.84,0009.77,0004.38
